Domov               UVHVVR             MKGP            O straneh              
ZDRAVSTVENO VARSTVO RASTLIN
  MREŽA AGROMET. POSTAJ
 ► PROGNOSTIČNA OBVESTILA
AGROMETEOROLOŠKI PODATKI -
ARSO
OBVLADOVANJE TVEGANJ ZARADI
NEUGODNIH VREMENSKIH RAZMER
  ► NARAVNE NESREČE
  ► SUŠA/MOČA
  ► NAMAKANJE
  ► ŽLED (gozdarstvo)
KARTOGRAFSKI PRIKAZI
SPLETNE POVEZAVE
PROJEKTI IN PUBLIKACIJE

AGROMETEOROLOŠKA MREŽA: VREMENSKE POSTAJE IN FENOLOŠKA OPAZOVANJA

Pregled podatkov za lokacijo Lendava, meteorološka postaja 42840

Pregled senzorjev na lokaciji

ID Ime Zadnja
vrednost
Datum
zadnje
spremembe
Tip
senzorja
2103 Omočenost lista (U) 0 U 12.12.2017 00:30 A730WET
2104 Temperatura 2 m (°C) 13,01 °C 12.12.2017 00:30 50YA
2105 Relativna vlaga 2 m (% RH) 63,2 % RH 12.12.2017 00:30 50YA
2106 Padavine (mm) 0 mm 12.12.2017 00:30 Rain-O-Matic

Pregled podatkov zadnjih 24 ur

Zap.
št.
Datum in čas Lendava
Omočenost
lista
Padavine Relativna
vlaga
2
m
Temperatura
2
m
0 12.12.2017 00:30 0 0 63,2 13,01
1 12.12.2017 00:00 0 0 63,61 12,89
2 11.12.2017 23:30 0 0 64,46 12,65
3 11.12.2017 23:00 0 0 64,83 12,61
4 11.12.2017 22:30 0 0 66,11 12,29
5 11.12.2017 22:00 0 0 67,82 11,92
6 11.12.2017 21:30 0 0 68,66 11,79
7 11.12.2017 21:00 0 0 68,54 11,76
8 11.12.2017 20:30 0 0 69,1 11,68
9 11.12.2017 20:00 0 0 69 11,76
10 11.12.2017 19:30 0 0 69,84 11,73
11 11.12.2017 19:00 0 0 70,06 11,79
12 11.12.2017 18:30 0 0 70,1 11,82
13 11.12.2017 18:00 0 0 69,48 12,03
14 11.12.2017 17:30 0 0 70,16 11,91
15 11.12.2017 17:00 0 0 70,33 11,83
16 11.12.2017 16:30 0 0 68,85 12,08
17 11.12.2017 16:00 0 0 68,82 11,98
18 11.12.2017 15:30 0 0 68,57 12,15
19 11.12.2017 15:00 0 0 68,51 11,91
20 11.12.2017 14:30 0 0 70,31 11,24
21 11.12.2017 14:00 0 0 72,13 10,1
22 11.12.2017 13:30 0 0 73,89 9,28
23 11.12.2017 13:00 1 0 73,95 9,09
24 11.12.2017 12:30 0 0 74,24 8,52
25 11.12.2017 12:00 0 0 73,73 8,39
26 11.12.2017 11:30 0 0 72,86 8,53
27 11.12.2017 11:00 0 0 73,35 8,33
28 11.12.2017 10:30 0 0 72,5 8,2
29 11.12.2017 10:00 0 0 73,47 7,82
30 11.12.2017 09:30 0 0 70,99 8,53
31 11.12.2017 09:00 0 0 73,08 7,53
32 11.12.2017 08:30 0 0 73,65 7,25
33 11.12.2017 08:00 0 0 75,49 6,51
34 11.12.2017 07:30 0 0 77,35 5,77
35 11.12.2017 07:00 0 0 78,74 4,72
36 11.12.2017 06:30 0 0 76,75 4,87
37 11.12.2017 06:00 0 0,2 75,62 4,78
38 11.12.2017 05:30 0 0 75,51 4,49
39 11.12.2017 05:00 0 0,2 76,19 3,75
40 11.12.2017 04:30 0 0,2 77,45 3,05
41 11.12.2017 04:00 0 0,2 78,91 2,6
42 11.12.2017 03:30 0 0,2 79,1 2,34
43 11.12.2017 03:00 0 0,2 78,1 2,55
44 11.12.2017 02:30 0 0,2 79,2 2,37
45 11.12.2017 02:00 0 0 81,01 2,13
© 2011 Ministrstvo za kmetijstvo, gozdarstvo in prehrano. Vse pravice pridržane.